• en France
  • Liste des pays
  • À 7 jours
  • Température de l'eau
  • Carte satellitaire
  • Carte météo
  • Widgets météo
  • user-avatar
    Se connecter

    Météo par heure à Boragangechuv

    Ce jour, 19 Août, Dimanche

    Heure Température Précipitation Vent Pression Humidité
    00:00 +25°C° 0,2 mm 3 m/s 752 mmHg 55%
    01:00 +25°C° 0 mm 2 m/s 753 mmHg 56%
    02:00 +24°C° 0 mm 2 m/s 753 mmHg 58%
    03:00 +24°C° 0 mm 3 m/s 753 mmHg 59%
    04:00 +24°C° 0 mm 2 m/s 753 mmHg 59%
    05:00 +24°C° 0 mm 2 m/s 753 mmHg 60%
    06:00 +23°C° 0 mm 2 m/s 753 mmHg 60%
    07:00 +25°C° 0 mm 2 m/s 753 mmHg 54%
    08:00 +27°C° 0 mm 3 m/s 753 mmHg 47%
    09:00 +29°C° 0 mm 3 m/s 754 mmHg 41%
    10:00 +30°C° 0 mm 3 m/s 754 mmHg 39%
    11:00 +32°C° 0 mm 4 m/s 754 mmHg 36%
    12:00 +33°C° 0 mm 4 m/s 754 mmHg 34%
    13:00 +32°C° 0 mm 4 m/s 754 mmHg 35%
    14:00 +32°C° 0 mm 4 m/s 754 mmHg 36%
    15:00 +30°C° 0 mm 4 m/s 754 mmHg 37%
    16:00 +29°C° 0 mm 4 m/s 754 mmHg 40%
    17:00 +28°C° 0 mm 4 m/s 754 mmHg 42%
    18:00 +27°C° 0 mm 3 m/s 755 mmHg 44%
    19:00 +26°C° 0 mm 3 m/s 755 mmHg 48%
    20:00 +24°C° 0 mm 2 m/s 755 mmHg 52%
    21:00 +21°C° 0 mm 2 m/s 756 mmHg 56%
    22:00 +21°C° 0 mm 2 m/s 756 mmHg 58%
    23:00 +21°C° 0 mm 1 m/s 756 mmHg 60%

    Demain, 20 Août, Lundi

    Heure Température Précipitation Vent Pression Humidité
    00:00 +21°C° 0 mm 1 m/s 756 mmHg 61%
    01:00 +20°C° 0 mm 1 m/s 756 mmHg 61%
    02:00 +20°C° 0 mm 1 m/s 756 mmHg 61%
    03:00 +19°C° 0 mm 1 m/s 756 mmHg 61%
    04:00 +20°C° 0 mm 1 m/s 756 mmHg 61%
    05:00 +20°C° 0 mm 1 m/s 757 mmHg 60%
    06:00 +20°C° 0 mm 1 m/s 757 mmHg 59%
    07:00 +21°C° 0 mm 2 m/s 757 mmHg 50%
    08:00 +25°C° 0 mm 3 m/s 757 mmHg 42%
    09:00 +27°C° 0 mm 3 m/s 757 mmHg 33%
    10:00 +28°C° 0 mm 4 m/s 757 mmHg 31%
    11:00 +30°C° 0 mm 4 m/s 757 mmHg 28%
    12:00 +32°C° 0 mm 5 m/s 756 mmHg 26%
    13:00 +32°C° 0 mm 5 m/s 756 mmHg 27%
    14:00 +32°C° 0 mm 6 m/s 756 mmHg 28%
    15:00 +32°C° 0 mm 7 m/s 756 mmHg 30%
    16:00 +29°C° 0 mm 6 m/s 756 mmHg 34%
    17:00 +28°C° 0 mm 6 m/s 756 mmHg 39%
    18:00 +27°C° 0 mm 6 m/s 756 mmHg 43%
    19:00 +25°C° 0 mm 5 m/s 756 mmHg 49%
    20:00 +23°C° 0 mm 5 m/s 756 mmHg 54%
    21:00 +22°C° 0 mm 4 m/s 756 mmHg 60%
    22:00 +22°C° 0 mm 4 m/s 756 mmHg 61%
    23:00 +21°C° 0 mm 4 m/s 756 mmHg 63%

    Après-demain, 21 Août, Mardi

    Heure Température Précipitation Vent Pression Humidité
    00:00 +21°C° 0 mm 4 m/s 756 mmHg 64%
    01:00 +21°C° 0 mm 4 m/s 755 mmHg 65%
    02:00 +21°C° 0 mm 3 m/s 755 mmHg 66%
    03:00 +20°C° 0 mm 3 m/s 755 mmHg 66%
    04:00 +21°C° 0 mm 3 m/s 755 mmHg 66%
    05:00 +21°C° 0 mm 3 m/s 755 mmHg 66%
    06:00 +21°C° 0 mm 2 m/s 755 mmHg 65%
    07:00 +24°C° 0 mm 3 m/s 755 mmHg 59%
    08:00 +26°C° 0 mm 3 m/s 755 mmHg 52%
    09:00 +28°C° 0 mm 4 m/s 755 mmHg 46%
    10:00 +30°C° 0 mm 4 m/s 755 mmHg 42%
    11:00 +32°C° 0 mm 5 m/s 754 mmHg 39%
    12:00 +33°C° 0 mm 5 m/s 754 mmHg 36%
    13:00 +33°C° 0 mm 5 m/s 754 mmHg 36%
    14:00 +33°C° 0 mm 5 m/s 754 mmHg 36%
    15:00 +33°C° 0 mm 6 m/s 753 mmHg 36%
    16:00 +32°C° 0,1 mm 5 m/s 753 mmHg 41%
    17:00 +30°C° 0,1 mm 5 m/s 754 mmHg 46%
    18:00 +28°C° 0,1 mm 4 m/s 754 mmHg 50%
    19:00 +27°C° 0 mm 4 m/s 754 mmHg 57%
    20:00 +26°C° 0 mm 4 m/s 754 mmHg 63%
    21:00 +24°C° 0 mm 3 m/s 754 mmHg 70%
    22:00 +24°C° 0 mm 3 m/s 754 mmHg 72%
    23:00 +23°C° 0 mm 2 m/s 754 mmHg 74%

    22 Août, Mercredi

    Heure Température Précipitation Vent Pression Humidité
    00:00 +23°C° 0 mm 2 m/s 754 mmHg 77%
    01:00 +23°C° 0 mm 2 m/s 754 mmHg 78%
    02:00 +23°C° 0 mm 1 m/s 754 mmHg 79%
    03:00 +22°C° 0 mm 1 m/s 754 mmHg 80%
    04:00 +22°C° 0 mm 1 m/s 754 mmHg 78%
    05:00 +23°C° 0 mm 1 m/s 754 mmHg 77%
    06:00 +23°C° 0 mm 1 m/s 754 mmHg 75%
    07:00 +25°C° 0 mm 1 m/s 754 mmHg 66%
    08:00 +28°C° 0 mm 1 m/s 754 mmHg 57%
    09:00 +30°C° 0 mm 1 m/s 754 mmHg 48%
    10:00 +31°C° 0 mm 1 m/s 754 mmHg 44%
    11:00 +34°C° 0 mm 2 m/s 754 mmHg 40%
    12:00 +35°C° 0 mm 2 m/s 754 mmHg 36%
    13:00 +35°C° 0 mm 2 m/s 753 mmHg 35%
    14:00 +36°C° 0 mm 2 m/s 753 mmHg 34%
    15:00 +36°C° 0 mm 3 m/s 753 mmHg 32%
    16:00 +35°C° 0 mm 3 m/s 753 mmHg 36%
    17:00 +34°C° 0 mm 3 m/s 754 mmHg 39%
    18:00 +31°C° 0 mm 3 m/s 754 mmHg 42%
    19:00 +29°C° 0 mm 3 m/s 754 mmHg 48%
    20:00 +27°C° 0 mm 3 m/s 755 mmHg 55%
    21:00 +25°C° 0 mm 2 m/s 755 mmHg 61%
    22:00 +25°C° 0 mm 2 m/s 755 mmHg 62%
    23:00 +25°C° 0 mm 2 m/s 755 mmHg 63%

    23 Août, Jeudi

    Heure Température Précipitation Vent Pression Humidité
    00:00 +24°C° 0 mm 1 m/s 755 mmHg 64%
    01:00 +24°C° 0 mm 1 m/s 755 mmHg 64%
    02:00 +24°C° 0 mm 1 m/s 755 mmHg 64%
    03:00 +24°C° 0 mm 1 m/s 755 mmHg 64%
    04:00 +24°C° 0,1 mm 1 m/s 755 mmHg 63%
    05:00 +24°C° 0,1 mm 1 m/s 756 mmHg 62%
    06:00 +24°C° 0,1 mm 1 m/s 756 mmHg 62%
    07:00 +27°C° 0 mm 1 m/s 756 mmHg 54%
    08:00 +29°C° 0 mm 1 m/s 756 mmHg 46%
    09:00 +32°C° 0 mm 1 m/s 756 mmHg 38%
    10:00 +34°C° 0 mm 2 m/s 756 mmHg 35%
    11:00 +35°C° 0 mm 3 m/s 756 mmHg 32%
    12:00 +36°C° 0 mm 3 m/s 755 mmHg 28%
    13:00 +36°C° 0 mm 4 m/s 755 mmHg 28%
    14:00 +36°C° 0 mm 4 m/s 755 mmHg 27%
    15:00 +36°C° 0 mm 5 m/s 755 mmHg 27%
    16:00 +35°C° 0 mm 4 m/s 755 mmHg 29%
    17:00 +33°C° 0 mm 4 m/s 755 mmHg 32%
    18:00 +32°C° 0 mm 4 m/s 756 mmHg 35%
    19:00 +29°C° 0 mm 4 m/s 756 mmHg 40%
    20:00 +27°C° 0 mm 3 m/s 756 mmHg 46%
    21:00 +25°C° 0 mm 3 m/s 756 mmHg 52%
    22:00 +25°C° 0 mm 2 m/s 756 mmHg 55%
    23:00 +24°C° 0 mm 2 m/s 756 mmHg 59%

    24 Août, Vendredi

    Heure Température Précipitation Vent Pression Humidité
    00:00 +24°C° 0 mm 2 m/s 756 mmHg 62%
    01:00 +23°C° 0 mm 2 m/s 756 mmHg 66%
    02:00 +23°C° 0 mm 2 m/s 756 mmHg 69%
    03:00 +23°C° 0 mm 2 m/s 756 mmHg 72%
    04:00 +23°C° 0 mm 2 m/s 756 mmHg 73%
    05:00 +23°C° 0 mm 2 m/s 757 mmHg 74%
    06:00 +23°C° 0 mm 2 m/s 757 mmHg 74%
    07:00 +26°C° 0 mm 3 m/s 756 mmHg 64%
    08:00 +28°C° 0 mm 4 m/s 756 mmHg 54%
    09:00 +32°C° 0 mm 4 m/s 756 mmHg 44%
    10:00 +33°C° 0 mm 5 m/s 756 mmHg 41%
    11:00 +34°C° 0 mm 6 m/s 755 mmHg 37%
    12:00 +35°C° 0 mm 6 m/s 755 mmHg 34%
    13:00 +35°C° 0 mm 6 m/s 755 mmHg 35%
    14:00 +35°C° 0 mm 7 m/s 755 mmHg 35%
    15:00 +35°C° 0 mm 7 m/s 754 mmHg 36%
    16:00 +33°C° 0 mm 7 m/s 754 mmHg 40%
    17:00 +32°C° 0 mm 6 m/s 754 mmHg 44%
    18:00 +29°C° 0 mm 6 m/s 754 mmHg 48%
    19:00 +28°C° 0 mm 6 m/s 754 mmHg 54%
    20:00 +27°C° 0 mm 5 m/s 755 mmHg 61%
    21:00 +25°C° 0 mm 4 m/s 755 mmHg 67%
    22:00 +25°C° 0 mm 4 m/s 754 mmHg 68%
    23:00 +25°C° 0 mm 4 m/s 754 mmHg 70%
    Voir plus